CAPE
0 0 0 0 0 0 0 0 0 0 0 0 0 0 0 0 0 0 0 0 0 0 0 0 0 0 0 0 0 0 0 0 0 0 0 0 0 0 0 0 0 0 0 0
0 0 0 0 0 0 0 0 0 0 0 0 0 0 0 0 0 0 0 0 0 0 0 0 0 0 0 0 0 0 0 0 0 0 0 0 0 0 0 1 1 0 0 0
0 0 0 0 0 0 0 0 0 0 0 0 0 0 0 0 0 0 0 0 0 0 0 0 0 0 0 0 0 0 0 0 0 0 0 0 0 0 0 0 0 0 0 0
0 0 0 0 0 0 0 0 0 0 0 0 0 0 0 0 0 0 0 0 0 0 0 0 0 0 0 0 0 0 0 0 0 0 0 0 0 0 0 0 0 0 0 0
0 0 0 0 0 0 0 0 0 0 0 0 0 0 0 0 0 0 0 0 0 0 0 0 0 0 0 0 0 0 0 0 0 0 0 0 0 0 0 0 0 0 0 0
0 0 0 0 0 0 0 0 0 0 0 0 0 0 0 0 0 0 0 0 0 0 0 0 0 0 0 0 0 0 0 0 0 0 0 0 0 0 0 0 0 0 0 0
0 0 0 0 0 0 0 0 0 0 0 0 0 0 0 0 0 0 0 0 0 0 0 0 0 0 0 0 0 0 0 0 0 0 0 0 0 0 0 0 0 0 0 0
0 0 1 1 0 0 0 0 0 0 0 0 0 0 0 0 0 0 0 0 0 0 0 0 0 0 0 0 0 0 0 0 0 0 0 0 0 0 0 0 0 0 0 0
0 0 0 0 0 0 0 0 0 0 0 0 0 0 0 0 0 0 0 0 0 0 0 0 0 0 0 0 0 0 0 0 0 0 0 0 0 0 0 0 0 0 0 0
0 0 0 0 0 0 0 0 0 0 0 0 0 0 0 0 0 0 0 0 0 0 0 0 0 0 0 0 0 0 0 0 0 0 0 0 0 0 0 0 0 0 0 0
0 0 0 0 0 4 0 0 0 0 0 0 0 0 0 0 0 0 0 0 0 0 0 0 0 0 0 0 0 0 0 0 0 0 0 0 0 0 0 0 0 0 0 0
0 0 0 0 0 2 0 0 0 0 0 0 0 0 0 0 0 0 0 0 0 0 0 0 0 0 0 0 0 0 0 0 0 0 0 0 0 0 0 0 0 0 0 0
0 0 0 0 0 1 0 0 0 0 0 0 0 0 0 0 0 0 0 0 0 0 0 0 0 0 0 0 0 0 0 0 0 0 0 0 0 0 0 0 0 0 0 0
0 0 0 0 0 2 4 0 0 0 0 0 0 0 0 0 0 0 0 0 0 0 0 0 0 0 0 0 0 0 0 0 0 0 0 0 0 0 0 0 0 0 0 0
0 0 0 0 0 0 3 0 0 0 0 0 0 0 0 0 0 0 0 0 0 0 0 0 0 0 0 0 0 0 0 0 0 0 0 0 0 0 0 0 0 0 0 0
1 0 0 0 0 0 0 2 0 0 0 0 0 0 0 0 0 0 0 0 0 0 0 0 0 0 0 0 0 0 0 0 0 0 0 0 0 0 0 0 0 0 0 0
2 0 0 0 0 0 0 0 0 0 0 0 0 0 0 0 0 0 0 0 0 0 0 0 0 0 0 0 0 0 0 0 0 0 0 0 0 0 0 0 0 0 0 0
3 1 0 0 0 0 1 0 0 0 0 0 0 0 0 0 0 0 0 0 0 0 0 0 0 0 0 0 0 0 0 0 0 0 0 0 0 0 0 0 0 0 0 0
1 1 1 3 8 6 0 0 0 0 0 0 0 0 0 0 0 0 0 0 0 0 0 0 0 0 0 0 0 0 0 0 0 0 0 0 0 0 0 0 0 0 0 0
3 1 0 2 0 0 0 0 0 1 0 0 0 0 0 0 0 0 0 0 0 0 0 0 0 0 0 0 0 0 0 0 0 0 0 0 0 0 0 0 0 0 0 0
0 1 0 0 0 0 0 0 0 0 0 0 0 0 0 0 0 0 0 0 0 0 0 0 0 0 0 0 0 0 0 0 0 0 0 0 0 0 0 0 0 0 0 0
0 0 1 2 1 0 0 0 0 1 0 0 0 0 0 0 0 0 0 0 0 0 0 0 0 0 0 0 0 0 0 0 0 0 0 0 0 0 0 0 0 0 0 0
0 0 0 0 0 0 0 0 1 0 0 0 0 0 0 0 0 0 0 0 0 0 0 0 0 0 0 0 0 0 0 0 0 0 0 0 0 0 0 0 0 0 0 0
0 0 0 0 0 0 0 0 0 0 0 0 0 0 0 0 0 0 0 0 0 0 0 0 0 0 0 0 0 0 0 0 0 0 0 0 0 0 0 0 0 0 0 0
0 0 0 0 0 0 0 0 0 0 0 0 0 0 0 0 0 0 0 0 0 0 0 0 0 0 0 0 0 0 0 0 0 0 0 0 0 0 0 0 0 0 0 0
0 0 0 0 0 0 0 0 0 0 0 0 0 0 0 0 0 0 0 0 0 0 0 0 0 0 0 0 0 0 0 0 0 0 0 0 0 0 0 0 0 0 0 0
0 0 1 0 0 0 0 0 0 0 0 0 0 0 0 0 0 0 0 0 0 0 0 0 0 0 0 0 0 0 0 0 0 0 0 0 0 0 0 0 0 0 0 0
CIN
-0 -0 -0 -0 -0 -0 -0 -0 -0 -0 -0 -0 -0 -0 -0 -0 -0 -0 -0 -0 -0 -0 -0 -0 -0 -0 -0 -0 -0 -0 -0 -0 -0 -0 -0 -0 -0 -0 -0 -0 -0 -0 -0 -0
-0 -0 -0 -0 -0 -0 -0 -0 -0 -0 -0 -0 -0 -0 -0 -0 -0 -0 -0 -0 -0 -0 -0 -0 -0 -0 -0 -0 -0 -0 -0 -0 -0 -0 -0 -0 -0 -0 -0 -0 -0 -0 -0 -0
-0 -0 -0 -0 -0 -0 -0 -0 -0 -0 -0 -0 -0 -0 -0 -0 -0 -0 -0 -0 -0 -0 -0 -0 -0 -0 -0 -0 -0 -0 -0 -0 -0 -0 -0 -0 -0 -0 -0 -0 -0 -0 -0 -0
-0 -0 -0 -0 -0 -0 -0 -0 -0 -0 -0 -0 -0 -0 -0 -0 -0 -0 -0 -0 -0 -0 -0 -0 -0 -0 -0 -0 -0 -0 -0 -0 -0 -0 -0 -0 -0 -0 -0 -0 -0 -0 -0 -0
-0 -0 -0 -0 -0 -0 -0 -0 -0 -0 -0 -0 -0 -0 -0 -0 -0 -0 -0 -0 -0 -0 -0 -0 -0 -0 -0 -0 -0 -0 -0 -0 -0 -0 -0 -0 -0 -0 -0 -0 -0 -0 -0 -0
-0 -0 -0 -0 -0 -0 -0 -0 -0 -0 -0 -0 -0 -0 -0 -0 -0 -0 -0 -0 -0 -0 -0 -0 -0 -0 -0 -0 -0 -0 -0 -0 -0 -0 -0 -0 -0 -0 -0 -0 -0 -0 -0 -0
-0 -0 -0 -0 -0 -0 -0 -0 -0 -0 -0 -0 -0 -0 -0 -0 -0 -0 -0 -0 -0 -0 -0 -0 -0 -0 -0 -0 -0 -0 -0 -0 -0 -0 -0 -0 -0 -0 -0 -0 -0 -0 -0 -0
-0 -0 -2 -1 -0 -0 -0 -0 -0 -0 -0 -0 -0 -0 -0 -0 -0 -0 -0 -0 -0 -0 -0 -0 -0 -0 -0 -0 -0 -0 -0 -0 -0 -0 -0 -0 -0 -0 -0 -0 -0 -0 -0 -0
-0 -0 -0 -0 -0 -0 -0 -0 -0 -0 -0 -0 -0 -0 -0 -0 -0 -0 -0 -0 -0 -0 -0 -0 -0 -0 -0 -0 -0 -0 -0 -0 -0 -0 -0 -0 -0 -0 -0 -0 -0 -0 -0 -0
-0 -0 -0 -0 -0 -0 -0 -0 -0 -0 -0 -0 -0 -0 -0 -0 -0 -0 -0 -0 -0 -0 -0 -0 -0 -0 -0 -0 -0 -0 -0 -0 -0 -0 -0 -0 -0 -0 -0 -0 -0 -0 -0 -0
-0 -0 -0 -0 -0 -4 -0 -0 -0 -0 -0 -0 -0 -0 -0 -0 -0 -0 -0 -0 -0 -0 -0 -0 -0 -0 -0 -0 -0 -0 -0 -0 -0 -0 -0 -0 -0 -0 -0 -0 -0 -0 -0 -0
-0 -0 -0 -0 -0 -3 -0 -0 -0 -0 -0 -0 -0 -0 -0 -0 -0 -0 -0 -0 -0 -0 -0 -0 -0 -0 -0 -0 -0 -0 -0 -0 -0 -0 -0 -0 -0 -0 -0 -0 -0 -0 -0 -0
-0 -0 -0 -0 -0 -2 -4 -0 -0 -0 -0 -0 -0 -0 -0 -0 -0 -0 -0 -0 -0 -0 -0 -0 -0 -0 -0 -0 -0 -0 -0 -0 -0 -0 -0 -0 -0 -0 -0 -0 -0 -0 -0 -0
-0 -0 -0 -0 -0 -0 -7 -0 -0 -0 -0 -0 -0 -0 -0 -0 -0 -0 -0 -0 -0 -0 -0 -0 -0 -0 -0 -0 -0 -0 -0 -0 -0 -0 -0 -0 -0 -0 -0 -0 -0 -0 -0 -0
-1 -0 -0 -0 -0 -0 -1 -0 -0 -0 -0 -0 -0 -0 -0 -0 -0 -0 -0 -0 -0 -0 -0 -0 -0 -0 -0 -0 -0 -0 -0 -0 -0 -0 -0 -0 -0 -0 -0 -0 -0 -0 -0 -0
-1 -0 -0 -0 -0 -0 -0 -3 -0 -0 -0 -0 -0 -0 -0 -0 -0 -0 -0 -0 -0 -0 -0 -0 -0 -0 -0 -0 -0 -0 -0 -0 -0 -0 -0 -0 -0 -0 -0 -0 -0 -0 -0 -0
-0 -0 -0 -0 -0 -0 -0 -0 -0 -0 -0 -0 -0 -0 -0 -0 -0 -0 -0 -0 -0 -0 -0 -0 -0 -0 -0 -0 -0 -0 -0 -0 -0 -0 -0 -0 -0 -0 -0 -0 -0 -0 -0 -0
-0 -0 -0 -0 -0 -0 -16 -0 -0 -0 -0 -0 -0 -0 -0 -0 -0 -0 -0 -0 -0 -0 -0 -0 -0 -0 -0 -0 -0 -0 -0 -0 -0 -0 -0 -0 -0 -0 -0 -0 -0 -0 -0 -0
-0 -0 -0 -3 -5 -2 -0 -0 -0 -0 -0 -0 -0 -0 -0 -0 -0 -0 -0 -0 -0 -0 -0 -0 -0 -0 -0 -0 -0 -0 -0 -0 -0 -0 -0 -0 -0 -0 -0 -0 -0 -0 -0 -0
-0 -0 -0 -0 -0 -0 -0 -0 -0 -0 -0 -0 -0 -0 -0 -0 -0 -0 -0 -0 -0 -0 -0 -0 -0 -0 -0 -0 -0 -0 -0 -0 -0 -0 -0 -0 -0 -0 -0 -0 -0 -0 -0 -0
-0 -0 -0 -0 -0 -0 -0 -0 -0 -0 -0 -0 -0 -0 -0 -0 -0 -0 -0 -0 -0 -0 -0 -0 -0 -0 -0 -0 -0 -0 -0 -0 -0 -0 -0 -0 -0 -0 -0 -0 -0 -0 -0 -0
-0 -0 -0 -0 -0 -0 -0 -0 -0 -0 -0 -0 -0 -0 -0 -0 -0 -0 -0 -0 -0 -0 -0 -0 -0 -0 -0 -0 -0 -0 -0 -0 -0 -0 -0 -0 -0 -0 -0 -0 -0 -0 -0 -0
-0 -0 -0 -0 -0 -0 -0 -0 -0 -0 -0 -0 -0 -0 -0 -0 -0 -0 -0 -0 -0 -0 -0 -0 -0 -0 -0 -0 -0 -0 -0 -0 -0 -0 -0 -0 -0 -0 -0 -0 -0 -0 -0 -0
-0 -0 -0 -0 -0 -0 -0 -0 -0 -0 -0 -0 -0 -0 -0 -0 -0 -0 -0 -0 -0 -0 -0 -0 -0 -0 -0 -0 -0 -0 -0 -0 -0 -0 -0 -0 -0 -0 -0 -0 -0 -0 -0 -0
-0 -0 -0 -0 -0 -0 -0 -0 -0 -0 -0 -0 -0 -0 -0 -0 -0 -0 -0 -0 -0 -0 -0 -0 -0 -0 -0 -0 -0 -0 -0 -0 -0 -0 -0 -0 -0 -0 -0 -0 -0 -0 -0 -0
-0 -0 -0 -0 -0 -0 -0 -0 -0 -0 -0 -0 -0 -0 -0 -0 -0 -0 -0 -0 -0 -0 -0 -0 -0 -0 -0 -0 -0 -0 -0 -0 -0 -0 -0 -0 -0 -0 -0 -0 -0 -0 -0 -0
-0 -0 -0 -0 -0 -0 -0 -0 -0 -0 -0 -0 -0 -0 -0 -0 -0 -0 -0 -0 -0 -0 -0 -0 -0 -0 -0 -0 -0 -0 -0 -0 -0 -0 -0 -0 -0 -0 -0 -0 -0 -0 -0 -0
Wind_Speed
14 11 10 11 13 14 18 18 19 14 17 18 19 20 19 18 18 17 17 15 15 15 14 13 12 11 11 13 13 11 14 11 7 9 9 7 6 3 1 3 4 3 5 4
14 13 11 10 11 17 17 20 19 16 17 19 19 18 18 16 15 15 15 15 14 13 13 13 13 11 11 13 12 11 13 8 4 5 7 6 3 2 1 2 5 6 2 1
17 15 16 15 11 14 19 19 20 19 21 20 19 18 16 15 13 12 13 13 13 13 13 11 11 10 12 12 11 12 12 8 8 8 7 6 7 6 2 4 5 3 5 4
16 15 16 17 13 17 19 21 21 20 20 20 19 16 15 14 14 13 12 12 12 12 13 12 12 11 8 11 12 12 10 8 8 8 12 9 7 7 5 5 7 9 2 2
16 16 18 17 15 17 21 21 19 19 18 18 18 16 15 13 13 13 13 12 11 10 10 10 9 10 10 12 18 16 11 10 9 10 8 7 6 6 8 8 9 7 5 3
16 15 17 21 20 19 20 19 18 18 16 16 16 15 15 15 14 13 11 12 10 7 5 6 4 5 6 8 23 21 19 14 14 10 9 10 7 8 11 10 11 9 10 5
17 17 17 21 23 22 19 18 18 18 18 15 15 14 13 11 11 9 12 13 12 12 6 2 4 4 4 6 8 17 22 19 16 14 13 10 9 10 11 9 8 9 8 6
17 17 17 18 20 20 18 17 17 17 16 15 12 12 11 10 11 10 8 9 11 12 13 12 9 12 12 13 10 12 23 21 18 15 16 16 11 11 11 9 9 9 10 7
15 15 16 17 17 18 18 17 16 16 16 15 13 15 12 13 13 12 12 13 13 16 17 17 16 14 13 13 15 14 17 21 21 18 18 16 11 10 12 10 9 11 10 9
13 14 13 15 16 16 17 16 16 16 14 12 13 12 14 13 13 14 11 13 16 15 17 17 15 14 13 12 11 13 12 19 24 22 21 18 13 10 14 10 9 8 9 9
12 12 12 14 14 13 16 16 14 16 14 9 9 9 10 11 11 15 12 13 13 16 15 19 19 15 14 11 7 10 10 13 21 19 21 20 10 13 11 9 13 11 11 12
11 11 11 13 13 12 14 17 14 14 14 11 11 7 6 6 8 11 11 11 12 11 13 14 21 21 17 13 9 10 8 11 11 19 23 23 7 6 8 13 13 11 7 9
9 9 11 11 13 11 12 16 15 17 17 17 13 10 10 6 5 7 8 9 10 10 12 11 12 20 21 23 14 20 4 4 8 21 23 18 11 9 10 15 14 12 5 11
6 7 9 11 13 14 11 14 14 14 17 18 13 16 13 12 9 7 6 9 13 13 11 6 7 8 16 23 24 22 18 20 10 20 27 27 25 14 13 11 2 7 10 14
7 7 8 10 12 13 14 15 13 11 15 17 15 17 15 13 9 8 8 7 7 7 8 7 5 5 8 17 25 19 14 17 17 14 20 27 27 27 24 20 21 18 9 11
8 8 7 8 10 11 16 20 13 5 11 18 21 15 11 13 11 9 8 8 9 8 8 8 6 5 5 7 11 21 18 19 17 30 27 26 32 32 31 32 32 16 6 5
10 9 8 9 9 10 15 17 18 9 13 17 21 17 13 11 12 11 10 10 11 10 9 7 7 9 6 7 7 10 20 24 28 30 34 39 37 37 35 32 33 27 18 15
11 10 9 11 11 13 16 15 12 11 17 17 18 17 16 9 11 10 11 12 11 11 12 12 9 12 9 9 4 3 7 24 36 35 29 31 35 36 36 34 32 28 22 18
11 8 7 14 16 17 17 12 13 14 17 20 16 19 21 11 12 12 12 12 9 13 12 12 11 10 8 5 7 6 12 13 16 37 36 36 38 40 40 38 34 28 24 21
8 9 16 21 17 9 11 17 18 16 15 16 23 17 16 11 12 10 11 12 11 12 11 14 11 13 13 12 10 8 8 15 26 28 32 34 39 39 40 39 34 30 26 23
16 17 20 16 9 16 18 20 16 14 18 17 20 11 14 10 14 11 9 13 12 14 14 13 15 17 16 15 10 11 18 22 24 25 28 31 35 41 42 41 38 32 29 26
17 13 12 14 18 21 23 22 18 18 21 18 18 16 11 11 11 12 10 13 12 14 14 16 18 15 11 14 15 19 21 24 28 28 32 33 34 35 37 38 38 35 30 27
14 20 19 18 20 25 24 25 22 22 18 15 12 12 10 13 11 14 13 14 13 14 17 18 15 13 12 15 17 17 21 25 27 30 31 32 32 34 34 37 35 32 32 27
27 26 29 28 27 28 29 27 24 21 16 9 6 11 16 12 12 15 18 16 15 18 20 21 17 14 11 15 20 23 25 26 28 30 31 32 32 31 33 33 33 29 30 28
30 28 33 37 32 30 24 19 19 18 9 7 11 15 15 15 17 17 18 19 23 19 25 22 18 11 15 19 21 24 27 29 31 32 33 34 35 32 30 30 31 30 29 28
33 35 38 37 32 32 27 22 23 15 10 10 16 18 21 21 20 21 21 23 25 28 22 19 16 14 18 19 21 24 29 30 31 32 34 34 34 32 31 30 30 30 30 30
41 45 40 39 36 34 30 25 22 14 15 23 21 24 24 20 25 26 23 28 28 22 21 19 17 19 21 21 24 28 31 31 32 33 32 32 31 29 29 32 32 30 30 29
Wind_Direction
69 65 52 48 47 61 83 87 78 90 93 89 92 91 98 107 104 105 102 104 100 96 98 102 122 130 141 115 110 122 115 125 205 176 142 144 158 140 145 188 229 215 125 103
66 61 54 52 54 61 77 77 80 93 93 85 86 92 92 97 101 102 99 98 102 104 95 93 110 137 131 114 123 130 113 150 227 199 164 175 181 201 201 238 158 130 123 59
60 58 56 56 61 68 75 77 77 78 81 91 86 82 87 86 97 101 99 98 99 94 87 109 103 116 141 118 135 123 115 155 178 221 225 231 254 252 207 123 142 205 112 320
62 61 58 56 63 72 75 73 76 78 78 75 77 85 78 80 81 88 93 92 93 87 82 83 90 104 152 200 137 112 117 204 183 227 244 229 216 226 191 195 137 123 111 358
60 62 58 60 63 73 73 71 75 77 81 76 73 74 76 77 73 78 80 85 85 90 89 88 81 81 103 208 279 255 109 220 245 259 182 172 233 201 169 176 143 137 134 125
55 63 61 53 58 66 67 72 77 76 79 81 78 79 76 68 69 69 79 72 73 85 99 102 122 127 130 151 277 278 266 244 268 222 240 255 177 158 140 141 124 127 124 156
46 51 55 48 49 54 65 67 67 66 66 76 77 80 80 77 73 80 59 57 57 69 79 64 89 119 154 164 179 245 268 255 248 243 269 233 166 145 131 160 169 153 176 192
36 42 48 49 47 52 59 63 65 62 60 66 72 80 81 80 72 71 66 54 46 42 45 57 72 77 82 81 111 168 210 255 242 236 261 247 172 141 128 140 222 131 125 196
30 35 39 43 49 51 52 54 60 60 53 65 70 67 80 69 69 67 65 59 52 33 32 42 51 61 70 78 74 86 289 264 245 247 256 250 173 152 118 130 195 118 163 193
23 28 40 34 36 46 43 45 51 48 50 61 65 67 63 77 72 63 66 61 49 53 25 26 40 51 66 75 83 76 113 274 243 232 245 238 193 123 73 92 211 121 114 176
2 18 24 23 29 37 31 32 49 34 38 43 56 63 69 69 73 53 67 60 69 52 51 18 11 32 43 56 101 89 98 158 271 284 272 282 86 51 55 81 45 62 63 48
345 358 9 14 17 28 26 13 36 34 23 26 29 37 53 77 92 67 75 74 72 79 63 46 3 351 8 25 49 79 118 143 166 297 293 294 11 15 11 360 1 18 67 57
336 345 355 3 5 16 17 5 14 16 11 9 23 36 35 60 120 91 66 69 72 66 55 53 48 353 345 339 2 342 211 127 184 292 301 274 245 313 320 328 339 350 100 144
315 337 347 353 354 355 8 360 8 18 11 7 33 16 21 24 49 71 69 58 48 48 49 79 66 45 5 336 327 330 331 330 327 240 250 252 245 227 222 208 161 188 151 163
288 314 334 345 350 352 348 344 352 4 4 357 359 353 351 359 18 38 44 45 50 58 48 56 55 65 33 354 330 330 342 334 328 302 290 275 263 285 286 225 213 191 160 157
268 287 308 329 342 352 350 342 354 10 8 355 353 8 10 3 12 21 30 38 33 45 49 35 41 51 53 41 14 337 333 328 325 305 310 310 294 290 286 277 255 204 185 173
263 274 295 315 326 330 337 341 347 7 352 352 347 356 20 14 6 9 11 14 10 17 19 16 9 15 33 7 331 6 344 326 317 311 302 289 291 293 295 292 282 290 293 290
264 272 289 310 323 323 315 326 345 348 336 342 341 345 351 6 354 357 360 357 360 359 358 3 4 4 0 349 275 324 331 332 311 307 312 305 301 296 290 296 294 291 287 284
257 264 287 308 308 309 315 325 323 322 323 325 327 328 331 3 348 354 356 353 357 354 345 349 0 355 340 318 334 315 340 346 335 313 310 305 298 294 292 290 291 288 283 277
222 273 291 296 304 331 336 321 314 310 309 310 308 314 316 336 336 347 356 353 351 348 353 358 347 330 295 288 293 306 317 342 337 336 330 320 307 302 297 293 289 283 278 274
264 273 280 304 319 314 311 307 305 311 316 313 311 284 300 321 315 324 342 341 351 342 348 349 346 340 347 357 6 359 348 343 338 335 331 329 322 308 298 293 287 283 276 271
256 274 293 294 294 298 297 294 303 303 309 311 309 311 310 316 326 325 335 327 339 330 344 342 339 347 347 351 357 349 347 343 337 337 333 333 330 322 309 297 290 280 275 270
269 277 278 284 284 278 285 282 293 304 307 309 315 314 317 321 314 323 327 322 316 337 327 328 330 344 346 342 345 350 347 343 342 339 339 337 336 331 320 304 293 283 275 269
260 264 264 267 277 277 274 278 288 294 304 297 300 317 317 319 305 315 314 314 323 317 315 316 330 333 329 338 335 336 338 341 341 341 342 339 337 335 328 314 297 285 277 270
260 260 263 263 267 276 284 283 289 299 297 283 297 314 313 310 305 305 309 311 308 308 311 318 327 328 332 331 333 333 333 335 335 335 335 334 334 333 327 318 303 288 279 273
257 259 263 270 266 266 273 269 279 282 267 292 306 301 302 298 302 295 289 300 302 310 307 315 316 321 325 323 325 328 328 329 329 329 329 329 328 328 325 316 304 291 281 273
255 257 260 262 270 264 267 269 269 258 250 278 294 288 289 304 298 290 292 293 302 306 309 308 306 310 316 317 320 322 323 323 323 325 327 327 326 324 319 311 302 294 284 277